Location: Althorst
(53.6379°N, 10.7715°E)
Time: 05:25:05
(UTC+00:00)

SeaSat 1 - Pass Details

Date: 10 December 2019
Orbit: 744 x 748 km, 108.0° (Epoch: 22 January)

Event Time Altitude Azimuth Distance (km) Brightness Sun altitude
Exits shadow 18:42:02 34° 323° (NW) 1,225 3.8 -31.9°
Drops below altitude 10° 18:44:47 10° 327° (NNW) 2,274 5.3 -32.3°
Sets 18:47:04 0° 328° (NNW) 3,202 6.2 -32.6°
